Hourly Data Report for June 12, 2001

SHERBROOKE A
QUEBEC

45°26'00.000" N
71°41'00.000" W
241.40 m
7028124
71610
YSC

Download Data

Hourly Data (June 2001)
Hourly Data Report for June 12, 2001
TIME
LST
Temp Definition
°C
Dew Point Definition
°C
Rel Hum Definition
%
Precip. Amount Definition
mm

Wind Dir Definition
10's deg

Wind Spd Definition
km/h
Visibility Definition
km
Stn Press Definition
kPa
Hmdx Definition


Wind Chill Definition


Weather Definition


00:00 13.1 12.1 94   4 6 15.0 98.07      
01:00 12.8 12.2 96   4 4 12.9 98.05      
02:00 12.8 12.1 96   3 6 15.0 98.02      
03:00 12.2 11.7 97   7 6 9.7 97.99      
04:00 12.7 12.1 96     0 11.3 98.07      
05:00 13.1 12.4 96   5 6 15.0 98.15      
06:00 13.5 12.8 96   6 6 15.0 98.14      
07:00 14.5 13.2 92   7 9 24.1 98.11     Cloudy
08:00 15.9 14.0 88   8 7 24.1 98.16     Cloudy
09:00 16.4 14.1 86   12 7 24.1 98.12     Cloudy
10:00 17.7 14.4 81   21 6 24.1 98.17     Cloudy
11:00 18.7 14.3 76     0 24.1 98.15     Cloudy
12:00 20.1 14.8 72     0 24.1 98.11     Mostly Cloudy
13:00 19.9 15.1 74   12 6 24.1 98.11     Cloudy
14:00 20.2 15.3 73   11 6 24.1 98.09     Cloudy
15:00 20.3 13.7 66   21 7 24.1 98.09     Cloudy
16:00 19.9 14.8 72   22 6 24.1 98.06     Cloudy
17:00 20.6 14.0 66     0 15.0 98.02      
18:00 19.5 15.0 75   16 4 15.0 98.02      
19:00 18.4 15.5 83     0 15.0 98.07      
20:00 15.4 14.1 92   14 4 15.0 98.12      
21:00 13.6 13.4 99     0 4.8 98.17      
22:00 13.0 13.0 100   6 4 0.5 98.18      
23:00 11.2 11.1 99   9 4 0.8 98.21      

Notes on Data Quality.

Legend

  • E = Estimated
  • M = Missing
  • NA = Not Available*
  • [empty] = Indicates an unobserved value
Date modified: